Overview Statistics Trail Chart Weather Telemetry Raw packets
 

This is the latest recevied weather packets stored in our database for station/object VE8SKI. If no packets are shown the sender has not sent any weather packets the latest 10 day(s).

<< 61 62 63 64 65 66 67 >>
Time Temp. Humidity Pressure Rain* Wind** Luminosity Snow
1777686678 6.67° C 69% 1013.4 hPa 0 mm 4.02 m/s, 24° - -
1777686378 6.67° C 68% 1013.4 hPa 0 mm 3.58 m/s, 359° - -
1777686079 6.67° C 68% 1013.3 hPa 0 mm 3.13 m/s, 13° - -
1777685779 6.67° C 67% 1013.4 hPa 0 mm 3.58 m/s, 17° - -
1777685479 6.67° C 67% 1013.4 hPa 0 mm 3.58 m/s, 28° - -
1777685180 6.67° C 67% 1013.3 hPa 0 mm 4.02 m/s, 4° - -
1777684877 6.67° C 67% 1013.3 hPa 0 mm 4.02 m/s, 28° - -
1777684578 6.67° C 67% 1013.4 hPa 0 mm 4.47 m/s, 25° - -
1777684278 6.67° C 67% 1013.4 hPa 0 mm 4.92 m/s, 24° - -
1777683979 6.67° C 67% 1013.3 hPa 0 mm 4.47 m/s, 15° - -
1777683679 6.67° C 67% 1013.4 hPa 0 mm 4.47 m/s, 35° - -
1777683380 6.67° C 67% 1013.4 hPa 0 mm 4.47 m/s, 20° - -
1777683077 6.11° C 68% 1013.3 hPa 0 mm 3.58 m/s, 32° - -
1777682778 6.11° C 67% 1013.4 hPa 0 mm 5.81 m/s, 23° - -
1777682478 6.67° C 67% 1013.3 hPa 0 mm 4.47 m/s, 17° - -
1777682178 6.67° C 66% 1013.3 hPa 0 mm 4.02 m/s, 30° - -
1777681879 7.22° C 65% 1013.3 hPa 0 mm 5.81 m/s, 1° - -
1777681579 7.22° C 66% 1013.3 hPa 0 mm 4.92 m/s, 1° - -
1777681277 6.67° C 68% 1013.2 hPa 0 mm 4.02 m/s, 42° - -
1777680977 6.67° C 67% 1013.2 hPa 0 mm 4.47 m/s, 3° - -
1777680678 6.67° C 67% 1013.1 hPa 0 mm 4.92 m/s, 24° - -
1777680378 6.67° C 67% 1013.1 hPa 0 mm 3.58 m/s, 7° - -
1777680079 6.67° C 68% 1013 hPa 0 mm 4.47 m/s, 23° - -
1777679779 6.67° C 68% 1012.9 hPa 0 mm 4.47 m/s, 11° - -
1777679477 6.67° C 68% 1012.9 hPa 0 mm 4.47 m/s, 13° - -

* Rain latest hour (hover to see other rain measurements)
** Current wind speed in m/s (hover to see current wind gust speed)